EJU21J EDDS-LIPZ

Flight info

Callsign EJU21J
Flight time 0h 55m
Altitude 31000
Route ROTWE5B/25 ROTWE Y126 TUBLO N850 NATOR DCT TRA DCT ARGAX DCT RESIA DCT ATPED/N0375F190 P131 ADOSA L612 ALBET
Aircraft A20N/M-SDE2E3FGHIRWXY/LB1

Departure

Time 2026-05-06 18:52
Airport Stuttgart Airport (EDDS)

Arrival

Time 2026-05-06 19:47
Airport Venice Marco Polo Airport (LIPZ)
Time Latitude Longitude Altitude Speed Heading
2026-05-06 18:17 48.68959 9.20289 1281 ft 0 kts 164°
2026-05-06 18:17 48.68961 9.20288 1281 ft 0 kts 164°
2026-05-06 18:45 48.68957 9.20290 1279 ft 2 kts 163°
2026-05-06 18:45 48.68936 9.20300 1280 ft 4 kts 163°
2026-05-06 18:45 48.68909 9.20314 1279 ft 4 kts 149°
2026-05-06 18:45 48.68905 9.20362 1278 ft 7 kts 77°
2026-05-06 18:46 48.68920 9.20458 1277 ft 12 kts 73°
2026-05-06 18:46 48.68948 9.20601 1273 ft 17 kts 73°
2026-05-06 18:46 48.68984 9.20792 1268 ft 21 kts 75°
2026-05-06 18:46 48.69020 9.20981 1272 ft 19 kts 72°
2026-05-06 18:47 48.69062 9.21195 1261 ft 23 kts 75°
2026-05-06 18:47 48.69107 9.21439 1266 ft 25 kts 74°
2026-05-06 18:47 48.69155 9.21684 1261 ft 24 kts 74°
2026-05-06 18:47 48.69200 9.21932 1255 ft 24 kts 73°
2026-05-06 18:48 48.69249 9.22193 1252 ft 27 kts 74°
2026-05-06 18:48 48.69305 9.22483 1229 ft 30 kts 74°
2026-05-06 18:48 48.69350 9.22727 1224 ft 25 kts 73°
2026-05-06 18:48 48.69401 9.22987 1219 ft 26 kts 74°
2026-05-06 18:49 48.69446 9.23229 1216 ft 24 kts 75°
2026-05-06 18:49 48.69493 9.23478 1211 ft 25 kts 73°
2026-05-06 18:49 48.69539 9.23725 1206 ft 23 kts 73°
2026-05-06 18:49 48.69580 9.23938 1200 ft 21 kts 75°
2026-05-06 18:50 48.69611 9.24106 1193 ft 13 kts 79°
2026-05-06 18:50 48.69578 9.24251 1190 ft 15 kts 123°
2026-05-06 18:50 48.69486 9.24327 1187 ft 15 kts 165°
2026-05-06 18:50 48.69404 9.24340 1187 ft 5 kts 210°
2026-05-06 18:51 48.69393 9.24318 1188 ft 5 kts 242°
2026-05-06 18:51 48.69365 9.24196 1191 ft 39 kts 254°
2026-05-06 18:51 48.69209 9.23388 1217 ft 117 kts 254°
2026-05-06 18:51 48.68920 9.21947 1478 ft 154 kts 251°
2026-05-06 18:52 48.68622 9.20397 2442 ft 154 kts 253°
2026-05-06 18:52 48.68331 9.18841 3438 ft 152 kts 254°
2026-05-06 18:52 48.68086 9.17340 4387 ft 146 kts 256°
2026-05-06 18:52 48.67836 9.15797 5075 ft 159 kts 255°
2026-05-06 18:53 48.67529 9.14102 5620 ft 177 kts 253°
2026-05-06 18:53 48.67163 9.12206 6135 ft 199 kts 253°
2026-05-06 18:53 48.66741 9.10060 6561 ft 225 kts 252°
2026-05-06 18:53 48.66257 9.07677 7101 ft 248 kts 248°
2026-05-06 18:54 48.65267 9.05429 7745 ft 266 kts 228°
2026-05-06 18:54 48.63946 9.03442 8724 ft 270 kts 223°
2026-05-06 18:54 48.62554 9.01495 9726 ft 275 kts 222°
2026-05-06 18:54 48.61136 8.99487 10466 ft 288 kts 223°
2026-05-06 18:55 48.59636 8.97301 10861 ft 311 kts 223°
2026-05-06 18:55 48.58053 8.94921 11388 ft 327 kts 224°
2026-05-06 18:55 48.56449 8.92462 12304 ft 330 kts 224°
2026-05-06 18:55 48.54828 8.89982 13229 ft 333 kts 224°
2026-05-06 18:56 48.53183 8.87482 14082 ft 337 kts 221°
2026-05-06 18:56 48.51181 8.85633 14818 ft 343 kts 199°
2026-05-06 18:56 48.48807 8.85097 15537 ft 351 kts 177°
2026-05-06 18:56 48.46406 8.85723 16247 ft 359 kts 167°
2026-05-06 18:57 48.43976 8.86691 17002 ft 363 kts 165°
2026-05-06 18:57 48.41519 8.87669 17758 ft 367 kts 166°
2026-05-06 18:57 48.39020 8.88580 18451 ft 372 kts 168°
2026-05-06 18:57 48.36490 8.89430 19161 ft 374 kts 168°
2026-05-06 18:58 48.33932 8.90247 19826 ft 378 kts 168°
2026-05-06 18:58 48.31341 8.91056 20409 ft 383 kts 168°
2026-05-06 18:58 48.28729 8.91866 21138 ft 384 kts 168°
2026-05-06 18:58 48.26105 8.92682 21833 ft 387 kts 168°
2026-05-06 18:59 48.23448 8.93508 22389 ft 393 kts 168°
2026-05-06 18:59 48.20757 8.94346 23051 ft 395 kts 168°
2026-05-06 18:59 48.18060 8.95186 23686 ft 398 kts 168°
2026-05-06 18:59 48.15335 8.96035 24170 ft 402 kts 168°
2026-05-06 19:00 48.12593 8.96890 24715 ft 405 kts 168°
2026-05-06 19:00 48.09862 8.97741 25249 ft 406 kts 169°
2026-05-06 19:00 48.07124 8.98595 26183 ft 395 kts 171°
2026-05-06 19:00 48.04438 8.99437 26877 ft 395 kts 171°
2026-05-06 19:01 48.01733 9.00279 27293 ft 399 kts 171°
2026-05-06 19:01 47.99005 9.01127 27787 ft 401 kts 171°
2026-05-06 19:01 47.96269 9.01977 28279 ft 402 kts 171°
2026-05-06 19:01 47.93519 9.02832 28742 ft 404 kts 172°
2026-05-06 19:02 47.90761 9.03687 29200 ft 406 kts 172°
2026-05-06 19:02 47.87990 9.04546 29634 ft 408 kts 172°
2026-05-06 19:02 47.85210 9.05406 30112 ft 408 kts 172°
2026-05-06 19:02 47.82421 9.06268 30416 ft 412 kts 172°
2026-05-06 19:03 47.79606 9.07134 30709 ft 415 kts 172°
2026-05-06 19:03 47.76761 9.08008 30892 ft 418 kts 172°
2026-05-06 19:03 47.73917 9.08895 30918 ft 418 kts 172°
2026-05-06 19:04 47.68235 9.10673 30913 ft 417 kts 172°
2026-05-06 19:04 47.62554 9.12445 30914 ft 414 kts 172°
2026-05-06 19:05 47.56932 9.14188 30921 ft 414 kts 172°
2026-05-06 19:05 47.51299 9.15900 30921 ft 413 kts 172°
2026-05-06 19:06 47.45675 9.17601 30919 ft 412 kts 173°
2026-05-06 19:06 47.40061 9.19307 30908 ft 411 kts 173°
2026-05-06 19:07 47.34495 9.21026 30906 ft 411 kts 173°
2026-05-06 19:07 47.28883 9.22451 30899 ft 409 kts 178°
2026-05-06 19:08 47.23275 9.24006 30907 ft 411 kts 176°
2026-05-06 19:08 47.17675 9.25714 30935 ft 411 kts 176°
2026-05-06 19:09 47.12092 9.27434 30920 ft 410 kts 175°
2026-05-06 19:09 47.06580 9.29583 30923 ft 418 kts 166°
2026-05-06 19:10 47.01534 9.34094 30928 ft 436 kts 148°
2026-05-06 19:10 46.97040 9.40085 30908 ft 436 kts 147°
2026-05-06 19:11 46.92537 9.46059 30903 ft 441 kts 147°
2026-05-06 19:11 46.87977 9.52073 30906 ft 440 kts 147°
2026-05-06 19:12 46.83438 9.58111 30908 ft 443 kts 146°
2026-05-06 19:12 46.78923 9.64088 30910 ft 441 kts 145°
2026-05-06 19:13 46.74380 9.70117 30922 ft 442 kts 146°
2026-05-06 19:13 46.69789 9.76114 30922 ft 443 kts 146°
2026-05-06 19:14 46.65191 9.82070 30940 ft 444 kts 146°
2026-05-06 19:14 46.60582 9.88020 30938 ft 442 kts 147°
2026-05-06 19:15 46.55978 9.93947 30928 ft 441 kts 147°
2026-05-06 19:15 46.51385 9.99852 30933 ft 440 kts 147°
2026-05-06 19:16 46.46795 10.05730 30937 ft 439 kts 148°
2026-05-06 19:16 46.42099 10.11371 30929 ft 438 kts 149°
2026-05-06 19:17 46.37433 10.17010 30930 ft 440 kts 148°
2026-05-06 19:17 46.32731 10.22668 30941 ft 440 kts 148°
2026-05-06 19:18 46.27996 10.28305 30958 ft 441 kts 149°
2026-05-06 19:18 46.23270 10.33904 30948 ft 439 kts 149°
2026-05-06 19:19 46.18544 10.39487 30948 ft 439 kts 149°
2026-05-06 19:19 46.16175 10.42284 30821 ft 439 kts 149°
2026-05-06 19:19 46.13815 10.45071 30593 ft 436 kts 149°
2026-05-06 19:19 46.11479 10.47832 30166 ft 431 kts 149°
2026-05-06 19:20 46.09170 10.50552 29612 ft 426 kts 149°
2026-05-06 19:20 46.06883 10.53240 28924 ft 423 kts 150°
2026-05-06 19:20 46.04640 10.55870 28177 ft 420 kts 149°
2026-05-06 19:20 46.02382 10.58512 27555 ft 415 kts 149°
2026-05-06 19:21 46.00149 10.61128 26870 ft 412 kts 149°
2026-05-06 19:21 45.97933 10.63722 26139 ft 411 kts 149°
2026-05-06 19:21 45.95721 10.66305 25554 ft 407 kts 149°
2026-05-06 19:21 45.93533 10.68862 24952 ft 404 kts 148°
2026-05-06 19:22 45.91361 10.71398 24353 ft 400 kts 148°
2026-05-06 19:22 45.89209 10.73906 23772 ft 397 kts 148°
2026-05-06 19:22 45.87072 10.76404 23126 ft 395 kts 148°
2026-05-06 19:22 45.85668 10.78055 22694 ft 393 kts 148°
2026-05-06 19:23 45.83563 10.80525 22038 ft 389 kts 147°
2026-05-06 19:23 45.81472 10.82966 21428 ft 386 kts 147°
2026-05-06 19:23 45.79397 10.85379 20822 ft 382 kts 147°
2026-05-06 19:23 45.77341 10.87763 20481 ft 379 kts 147°
2026-05-06 19:24 45.75275 10.90151 20181 ft 384 kts 147°
2026-05-06 19:24 45.73180 10.92574 19633 ft 389 kts 147°
2026-05-06 19:24 45.71074 10.95010 19062 ft 389 kts 146°
2026-05-06 19:24 45.68980 10.97432 18489 ft 385 kts 146°
2026-05-06 19:25 45.66912 10.99826 17876 ft 381 kts 146°
2026-05-06 19:25 45.64965 11.02367 17334 ft 378 kts 139°
2026-05-06 19:25 45.63292 11.05258 16775 ft 378 kts 130°
2026-05-06 19:25 45.61865 11.08398 16230 ft 375 kts 127°
2026-05-06 19:26 45.60472 11.11523 15689 ft 371 kts 127°
2026-05-06 19:26 45.59087 11.14609 15103 ft 367 kts 128°
2026-05-06 19:26 45.57695 11.17696 14229 ft 373 kts 127°
2026-05-06 19:26 45.56290 11.20811 13556 ft 372 kts 127°
2026-05-06 19:27 45.54895 11.23905 12874 ft 370 kts 127°
2026-05-06 19:27 45.53509 11.26980 12149 ft 368 kts 127°
2026-05-06 19:27 45.52134 11.30030 11489 ft 365 kts 126°
2026-05-06 19:27 45.50773 11.33076 10816 ft 363 kts 126°
2026-05-06 19:28 45.49440 11.36053 10244 ft 360 kts 126°
2026-05-06 19:28 45.48113 11.39001 9966 ft 342 kts 126°
2026-05-06 19:28 45.46865 11.41767 9906 ft 323 kts 126°
2026-05-06 19:28 45.45675 11.44390 9909 ft 313 kts 126°
2026-05-06 19:29 45.44483 11.47018 9904 ft 317 kts 126°
2026-05-06 19:29 45.43293 11.49647 9901 ft 315 kts 126°
2026-05-06 19:29 45.41982 11.52122 9832 ft 311 kts 135°
2026-05-06 19:29 45.40534 11.54397 9478 ft 309 kts 135°
2026-05-06 19:30 45.39117 11.56632 9313 ft 298 kts 135°
2026-05-06 19:30 45.37757 11.58780 9200 ft 285 kts 135°
2026-05-06 19:30 45.36455 11.60832 9090 ft 273 kts 136°
2026-05-06 19:30 45.35215 11.62763 8924 ft 262 kts 140°
2026-05-06 19:31 45.33737 11.64180 8737 ft 257 kts 161°
2026-05-06 19:31 45.32012 11.64780 8385 ft 255 kts 174°
2026-05-06 19:31 45.28495 11.65530 7618 ft 255 kts 174°
2026-05-06 19:32 45.26746 11.65908 7244 ft 254 kts 174°
2026-05-06 19:32 45.25007 11.66278 6927 ft 251 kts 174°
2026-05-06 19:32 45.23310 11.66634 6789 ft 245 kts 174°
2026-05-06 19:32 45.21606 11.66987 6698 ft 248 kts 174°
2026-05-06 19:33 45.19905 11.67342 6600 ft 247 kts 174°
2026-05-06 19:33 45.18206 11.67714 6496 ft 247 kts 173°
2026-05-06 19:33 45.16503 11.68103 6396 ft 247 kts 173°
2026-05-06 19:33 45.14823 11.68486 6279 ft 241 kts 173°
2026-05-06 19:34 45.13199 11.68838 6149 ft 230 kts 174°
2026-05-06 19:34 45.11650 11.69229 6028 ft 223 kts 164°
2026-05-06 19:34 45.10286 11.70349 6027 ft 236 kts 138°
2026-05-06 19:34 45.09192 11.72048 5965 ft 235 kts 134°
2026-05-06 19:35 45.08118 11.73781 5871 ft 233 kts 134°
2026-05-06 19:35 45.07065 11.75515 5616 ft 233 kts 127°
2026-05-06 19:35 45.06520 11.77669 5310 ft 238 kts 93°
2026-05-06 19:35 45.06888 11.79916 5071 ft 235 kts 57°
2026-05-06 19:36 45.08003 11.81626 5023 ft 241 kts 38°
2026-05-06 19:36 45.09300 11.83104 5023 ft 238 kts 36°
2026-05-06 19:36 45.10604 11.84559 5024 ft 239 kts 37°
2026-05-06 19:36 45.11885 11.86053 5024 ft 239 kts 39°
2026-05-06 19:37 45.13147 11.87588 4965 ft 238 kts 40°
2026-05-06 19:37 45.14383 11.89135 4905 ft 237 kts 40°
2026-05-06 19:37 45.15618 11.90695 4861 ft 237 kts 41°
2026-05-06 19:37 45.16850 11.92255 4792 ft 237 kts 41°
2026-05-06 19:38 45.18080 11.93808 4718 ft 237 kts 41°
2026-05-06 19:38 45.19312 11.95353 4656 ft 236 kts 41°
2026-05-06 19:38 45.20539 11.96898 4591 ft 236 kts 41°
2026-05-06 19:38 45.21765 11.98446 4527 ft 235 kts 41°
2026-05-06 19:39 45.22970 11.99971 4467 ft 236 kts 41°
2026-05-06 19:39 45.24191 12.01520 4384 ft 236 kts 41°
2026-05-06 19:39 45.25412 12.03068 4267 ft 234 kts 42°
2026-05-06 19:39 45.26625 12.04608 4143 ft 235 kts 42°
2026-05-06 19:40 45.27843 12.06156 4031 ft 234 kts 42°
2026-05-06 19:40 45.29053 12.07719 3831 ft 236 kts 51°
2026-05-06 19:40 45.30259 12.09300 3647 ft 235 kts 50°
2026-05-06 19:40 45.31463 12.10834 3552 ft 227 kts 48°
2026-05-06 19:41 45.32613 12.12284 3462 ft 215 kts 47°
2026-05-06 19:41 45.33683 12.13632 3421 ft 196 kts 47°
2026-05-06 19:41 45.34654 12.14859 3315 ft 182 kts 46°
2026-05-06 19:41 45.35569 12.16022 3207 ft 170 kts 46°
2026-05-06 19:42 45.36424 12.17114 3072 ft 162 kts 45°
2026-05-06 19:42 45.37244 12.18167 3034 ft 162 kts 45°
2026-05-06 19:42 45.38089 12.19245 2953 ft 161 kts 45°
2026-05-06 19:42 45.38919 12.20305 2774 ft 161 kts 45°
2026-05-06 19:43 45.39747 12.21363 2582 ft 157 kts 44°
2026-05-06 19:43 45.40546 12.22381 2376 ft 151 kts 44°
2026-05-06 19:43 45.41309 12.23359 2177 ft 144 kts 44°
2026-05-06 19:43 45.42036 12.24291 1999 ft 141 kts 44°
2026-05-06 19:44 45.42768 12.25232 1805 ft 141 kts 44°
2026-05-06 19:44 45.43487 12.26153 1625 ft 139 kts 44°
2026-05-06 19:44 45.44204 12.27075 1425 ft 140 kts 44°
2026-05-06 19:44 45.44919 12.27992 1258 ft 135 kts 44°
2026-05-06 19:45 45.45616 12.28887 1063 ft 134 kts 43°
2026-05-06 19:45 45.46292 12.29756 888 ft 132 kts 43°
2026-05-06 19:45 45.46977 12.30633 689 ft 132 kts 42°
2026-05-06 19:45 45.47670 12.31507 491 ft 134 kts 42°
2026-05-06 19:46 45.48363 12.32397 333 ft 134 kts 43°
2026-05-06 19:46 45.49057 12.33297 172 ft 135 kts 44°
2026-05-06 19:46 45.49735 12.34224 19 ft 132 kts 36°
2026-05-06 19:46 45.50293 12.34911 14 ft 79 kts 43°
2026-05-06 19:47 45.50626 12.35326 14 ft 47 kts 34°
2026-05-06 19:47 45.50869 12.35445 16 ft 11 kts 13°
2026-05-06 19:47 45.50875 12.35447 16 ft 0 kts 12°
2026-05-06 19:48 45.50876 12.35447 16 ft 1 kts 12°
2026-05-06 19:48 45.50904 12.35455 16 ft 8 kts
2026-05-06 19:48 45.50937 12.35406 17 ft 7 kts 256°
2026-05-06 19:49 45.50896 12.35336 16 ft 12 kts 220°
2026-05-06 19:49 45.50818 12.35239 16 ft 18 kts 223°
2026-05-06 19:49 45.50715 12.35103 14 ft 22 kts 223°
2026-05-06 19:49 45.50651 12.35012 14 ft 8 kts 225°
2026-05-06 19:50 45.50612 12.34937 14 ft 11 kts 261°
2026-05-06 19:50 45.50608 12.34821 15 ft 11 kts 269°
2026-05-06 19:50 45.50605 12.34710 15 ft 11 kts 267°
2026-05-06 19:50 45.50601 12.34584 15 ft 11 kts 267°
2026-05-06 19:51 45.50596 12.34475 15 ft 11 kts 266°
2026-05-06 19:51 45.50579 12.34401 16 ft 6 kts 237°
2026-05-06 19:51 45.50551 12.34343 15 ft 8 kts 257°
2026-05-06 19:51 45.50552 12.34265 15 ft 7 kts 267°
2026-05-06 19:52 45.50552 12.34225 15 ft 3 kts 269°
2026-05-06 19:52 45.50551 12.34218 15 ft 0 kts 268°